This is the latest recevied weather packets stored in our database for station/object KJ5SC. If no packets are shown the sender has not sent any weather packets the latest 10 day(s).
| Time | Temp. | Humidity | Pressure | Rain* | Wind** | Luminosity | Snow |
|---|---|---|---|---|---|---|---|
| 1787598357 | 36.67° C | 46% | - | 0 mm | - | - | - |
| 1787598054 | 36.67° C | 46% | 1018.9 hPa | 0 mm | - | 754 W/m² | - |
| 1787597749 | 36.67° C | 46% | 1018.9 hPa | 0 mm | - | 751 W/m² | - |
| 1787597448 | 36.67° C | 48% | 1018.9 hPa | 0 mm | - | 763 W/m² | - |
| 1787597148 | 36.67° C | 47% | 1018.9 hPa | 0 mm | - | 753 W/m² | - |
| 1787596844 | 36.67° C | 47% | 1018.9 hPa | 0 mm | - | 758 W/m² | - |
| 1787596545 | 36.67° C | 47% | 1018.9 hPa | 0 mm | - | 777 W/m² | - |
| 1787596240 | 36.11° C | 47% | 1018.9 hPa | 0 mm | - | 734 W/m² | - |
| 1787595937 | 36.11° C | 49% | 1018.9 hPa | 0 mm | - | 744 W/m² | - |
| 1787595632 | 36.11° C | 50% | 1018.9 hPa | 0 mm | - | 771 W/m² | - |
| 1787595327 | 35.56° C | 51% | 1018.9 hPa | 0 mm | - | 788 W/m² | - |
| 1787595026 | 35.56° C | 52% | 1018.9 hPa | 0 mm | - | 782 W/m² | - |
| 1787594722 | 35° C | 55% | 1019 hPa | 0 mm | - | 777 W/m² | - |
| 1787594421 | 35.56° C | 53% | 1019.1 hPa | 0 mm | - | 772 W/m² | - |
| 1787594121 | 35.56° C | 52% | 1019.1 hPa | 0 mm | - | 770 W/m² | - |
| 1787593816 | 35° C | 54% | 1019.1 hPa | 0 mm | - | 762 W/m² | - |
| 1787593511 | 35.56° C | 52% | 1019.3 hPa | 0 mm | - | 761 W/m² | - |
| 1787593207 | 35.56° C | 53% | 1019.3 hPa | 0 mm | - | 759 W/m² | - |
| 1787592901 | 35° C | 53% | 1019.4 hPa | 0 mm | - | 750 W/m² | - |
| 1787592596 | 34.44° C | 54% | 1019.4 hPa | 0 mm | - | 747 W/m² | - |
| 1787592296 | 35° C | 54% | 1019.4 hPa | 0 mm | - | 741 W/m² | - |
| 1787591992 | 35° C | 54% | 1019.8 hPa | 0 mm | - | 734 W/m² | - |
| 1787591692 | 35° C | 53% | 1019.8 hPa | 0 mm | - | 728 W/m² | - |
| 1787591388 | 35° C | 54% | 1019.8 hPa | 0 mm | - | 722 W/m² | - |
| 1787591083 | 34.44° C | 57% | 1019.8 hPa | 0 mm | - | 717 W/m² | - |
* Rain latest hour (hover to see other rain measurements)
** Current wind speed in m/s (hover to see current wind gust speed)